Regional Weather Roundup
Issued by NWS

Home | Current Version | Previous Version | Graphics & Text | Print | Product List | Glossary On
Versions: 1 2 3 4 5 6 7 8 9 10 11 12 13 14 15 16 17 18 19 20 21 22 23 24 25 26 27 28 29 30 31 32 33 34 35 36 37 38 39 40 41 42 43 44 45 46 47 48 49 50
000
ASUS45 KCYS 280010
RWRWY

WYOMING REGIONAL WEATHER ROUNDUP
NATIONAL WEATHER SERVICE CHEYENNE WY
500 PM MST TUE JAN 27 2015

NOTE:  "FAIR" INDICATES FEW OR NO CLOUDS BELOW 12,000 FEET
WITH NO SIGNIFICANT WEATHER AND/OR OBSTRUCTIONS TO VISIBILITY.

WYZ001-280100-
YELLOWSTONE NATIONAL PARK

CITY           SKY/WX    TMP DP  RH WIND       PRES   REMARKS
LK YELLOWSTONE   N/A     38  25  59 VRB7      30.17R WCI  33
6HR MIN TEMP:  20; 6HR MAX TEMP:  42;

W YELLOWSTONE  NOT AVBL

$$
WYZ002>013-054>058-071-098>099-280100-
NORTHERN WYOMING

CITY           SKY/WX    TMP DP  RH WIND       PRES   REMARKS
JACKSON        CLOUDY    25  23  93 CALM      30.16S
CODY           FAIR      43  32  65 N5        29.95S
GREYBULL       FAIR      33  28  81 NW5       29.96R WCI  29
6HR MIN TEMP:  26; 6HR MAX TEMP:  38;

WORLAND        FAIR      31  26  82 S5        29.95S WCI  26
6HR MIN TEMP:  25; 6HR MAX TEMP:  37;

SHERIDAN       FAIR      45  31  58 CALM      29.88S
6HR MIN TEMP:  45; 6HR MAX TEMP:  58;

BUFFALO          N/A     51  33  50 NW6       29.91S
GILLETTE       FAIR      51  29  42 S6        29.88F
6HR MIN TEMP:  51; 6HR MAX TEMP:  63;

HULETT           N/A    N/A N/A N/A MISG        N/A
NEWCASTLE      FAIR      57  27  30 SE5       29.93F

$$
WYZ014>020-022>026-101>103-280100-
CENTRAL WYOMING

CITY           SKY/WX    TMP DP  RH WIND       PRES   REMARKS
BIG PINEY      CLOUDY    36  27  69 E5        30.16S WCI  32
6HR MIN TEMP:  28; 6HR MAX TEMP:  39;

PINEDALE       CLOUDY    34  27  75 N3        30.17F
DUBOIS         CLOUDY    45  19  36 W21       30.07S
LANDER         CLOUDY    40  29  64 E3        30.01S
6HR MIN TEMP:  31; 6HR MAX TEMP:  44;

RIVERTON       FAIR      39  31  72 CALM      30.03S
6HR MIN TEMP:  34; 6HR MAX TEMP:  44;

CASPER         FAIR      50  27  40 SW20      30.01F
6HR MIN TEMP:  50; 6HR MAX TEMP:  58;

DOUGLAS        FAIR      58  21  24 MISG      29.98F
6HR MIN TEMP:  58; 6HR MAX TEMP:  71;


$$
WYZ021-027>030-104>119-280100-
SOUTHERN WYOMING

CITY           SKY/WX    TMP DP  RH WIND       PRES   REMARKS
EVANSTON       MOCLDY    42  31  64 W12       30.18S
6HR MIN TEMP:  42; 6HR MAX TEMP:  48;

KEMMERER       FAIR      39  30  70 W7        30.17S WCI  34
FORT BRIDGER   FAIR      46  33  60 W14       30.19F
ROCK SPRINGS   FAIR      44  26  49 W8        30.15F
6HR MIN TEMP:  41; 6HR MAX TEMP:  50;

DIXON          CLOUDY    44  28  53 SE7       30.23S
RAWLINS        CLOUDY    47  25  42 SW20G25   30.14F
6HR MIN TEMP:  47; 6HR MAX TEMP:  55;

SARATOGA       FAIR      45  25  45 SW16G25   30.17S
LARAMIE        FAIR      51  18  27 SW12      30.13F
6HR MIN TEMP:  50; 6HR MAX TEMP:  59;

CHEYENNE       FAIR      57  19  22 W8        30.06S
6HR MIN TEMP:  57; 6HR MAX TEMP:  70;

TORRINGTON     FAIR      63  24  22 NW16      29.96S
6HR MIN TEMP:  55; 6HR MAX TEMP:  75;

PINE BLUFFS    FAIR      59  25  27 E3        30.01F

$$



USA.gov is the U.S. government's official web portal to all federal, state and local government web resources and services.